Regional Weather Roundup
Issued by NWS

Home | Current Version | Previous Version | Graphics & Text | Print | Product List | Glossary On
Versions: 1 2 3 4 5 6 7 8 9 10 11 12 13 14 15 16 17 18 19 20 21 22 23 24 25 26 27 28 29 30 31 32 33 34 35 36 37 38 39 40 41 42 43 44 45 46 47 48 49 50
973
ASUS43 KOAX 110110
RWRNE

WEATHER ROUNDUP FOR NEBRASKA
NATIONAL WEATHER SERVICE OMAHA NE
700 PM CST WED FEB 10 2016

NOTES: SATELLITE DATA IS BEING USED TO AUGMENT CLOUD COVER ABOVE
       12000 FEET.
       "FAIR" INDICATES FEW OR NO CLOUDS BELOW 12,000 FEET WITH NO
       SIGNIFICANT WEATHER AND/OR OBSTRUCTIONS TO VISIBILITY.

  * THESE STATIONS DO NOT REPORT WEATHER SUCH AS RAIN...SNOW OR FOG.

NEZ001>004-019>022-054>056-110200-
NEBRASKA PANHANDLE

CITY           SKY/WX    TMP DP  RH WIND       PRES   REMARKS
SCOTTSBLUFF    CLOUDY    42  28  57 NW9       30.08R
ALLIANCE       CLOUDY    44  31  60 NW13      30.04R
CHADRON        PTCLDY    46  25  43 N6        30.05R
KIMBALL        CLOUDY    41  26  55 W17       30.12R
SIDNEY         CLOUDY    39  29  67 NW14      30.08R WCI  31
$$

NEZ057>060-069>072-079>082-110200-
SOUTHWEST NEBRASKA

CITY           SKY/WX    TMP DP  RH WIND       PRES   REMARKS
NORTH PLATTE   CLOUDY    39  31  72 W6        29.98R WCI  35
IMPERIAL       CLOUDY    44  28  53 W12       30.02R
LEXINGTON      CLOUDY    38  31  76 NW8       29.98R WCI  32
MCCOOK         CLOUDY    44  30  57 W13       30.00R
OGALLALA       CLOUDY    41  30  64 CALM      30.01R
$$

NEZ005>010-023>029-035>040-094-110200-
NORTH CENTRAL NEBRASKA

CITY           SKY/WX    TMP DP  RH WIND       PRES   REMARKS
VALENTINE      CLEAR     38  30  73 NE12      30.04R WCI  30
AINSWORTH      CLEAR     38  31  73 N15       30.03R WCI  30
BROKEN BOW     CLOUDY    42  29  59 N12       29.97R
O`NEILL        CLOUDY    31  26  80 NE9       30.04R WCI  23
ORD            CLOUDY    37  30  75 N3        29.99R
THEDFORD       PTCLDY    47  28  48 N7        30.02R
$$

NEZ041-046>049-061>064-073>077-083>087-110200-
SOUTH CENTRAL NEBRASKA

CITY           SKY/WX    TMP DP  RH WIND       PRES   REMARKS
GRAND ISLAND   CLOUDY    35  30  82 NE16      29.98R WCI  25
AURORA         CLEAR     34  31  90 NE15      29.97R WCI  24
HASTINGS       CLOUDY    39  31  72 N5        29.94R
HEBRON         CLOUDY    38  32  79 CALM      29.96R
HOLDREGE       CLOUDY    40  31  70 W5        29.96R
KEARNEY *      CLOUDY    43  32  65 NW8       29.96R
YORK           CLEAR     32  32 100 NE9       29.99R WCI  24
$$

NEZ011>018-030>034-042>045-110200-
NORTHEAST NEBRASKA

CITY           SKY/WX    TMP DP  RH WIND       PRES   REMARKS
NORFOLK        CLOUDY    30  23  75 NE12      30.03R WCI  20
ALBION         CLOUDY    33  28  81 N5        30.02R WCI  28
BLAIR          CLEAR     26  22  87 NE16      30.01R WCI  13
COLUMBUS *     CLOUDY    28  18  64 NE7       30.02R WCI  21
FREMONT        CLOUDY    28  22  81 NE12      30.04R WCI  17
TEKAMAH        CLOUDY    22  17  81 N14       30.08R WCI   9
WAYNE          CLOUDY    20  17  86 NE13      30.07R WCI   8
$$

NEZ050>053-065>068-078-088>093-110200-
SOUTHEAST NEBRASKA

CITY           SKY/WX    TMP DP  RH WIND       PRES   REMARKS
LINCOLN        CLEAR     31  26  82 N10       30.01R WCI  22
OMAHA EPPLEY   PTCLDY    26  21  81 NE8       30.05R WCI  18
BEATRICE       CLOUDY    38  30  74 NE6       29.98R WCI  33
FALLS CITY     CLEAR     36  22  56 E7        29.97R WCI  30
NEBRASKA CITY  CLOUDY    34  26  71 NE5       29.99R WCI  30
PLATTSMOUTH    CLOUDY    33  25  74 NE7       30.00R WCI  26
$$

NEZ044-045-051>053-067-110200-
OMAHA AREA

CITY           SKY/WX    TMP DP  RH WIND       PRES   REMARKS
OMAHA EPPLEY   PTCLDY    26  21  81 NE8       30.05R WCI  18
BLAIR          CLEAR     26  22  87 NE16      30.01R WCI  13
FREMONT        CLOUDY    28  22  81 NE12      30.04R WCI  17
MILLARD        CLEAR     32  24  73 E8        30.02R WCI  25
OFFUTT AFB     CLEAR     29  25  86 NE10      30.02R WCI  19
PLATTSMOUTH    CLOUDY    33  25  74 NE7       30.00R WCI  26
WAHOO          FAIR      30  25  81 N6        30.02R WCI  24
$$




USA.gov is the U.S. government's official web portal to all federal, state and local government web resources and services.